Regional Weather Roundup
Issued by NWS

Home | Current Version | Previous Version | Text Only | Print | Product List | Glossary On
Versions: 1 2 3 4 5 6 7 8 9 10 11 12 13 14 15 16 17 18 19 20 21 22 23 24 25 26 27 28 29 30 31 32 33 34 35 36 37 38 39 40 41 42 43 44 45 46 47 48 49 50
000
ASUS44 KJAN 240710
RWRMS

MISSISSIPPI HOURLY WEATHER ROUNDUP
NATIONAL WEATHER SERVICE JACKSON MS
200 AM CDT TUE OCT 24 2017

NOTE: "FAIR: INDICATES FEW OR NO CLOUDS BELOW 12,000 FEET WITH NO
SIGNIFICANT WEATHER AND/OR OBSTRUCTIONS TO VISIBILITY.

MSZ001>002-007>008-010>013-018>021-025>028-034>036-240800-
NORTHWEST MISSISSIPPI

CITY           SKY/WX    TMP DP  RH WIND       PRES   REMARKS
BATESVILLE     FAIR      51  47  87 SW3       30.01S
CLARKSDALE       N/A     59  46  63 W9        30.02S
CLEVELAND      FAIR      57  49  73 NW13      30.03R
GREENWOOD      CLEAR     50  48  93 CALM      30.02S
GREENVILLE     CLEAR     58  47  66 NW8       30.05R
OXFORD         FAIR      55  46  71 W7        30.00S
TUNICA           N/A    N/A N/A N/A W8        30.01R
WINONA         FAIR      54  47  77 CALM      30.01R
$$

MSZ003>006-009-014>017-022>024-029>033-037>039-240800-
NORTHEAST MISSISSIPPI

CITY           SKY/WX    TMP DP  RH WIND       PRES   REMARKS
COLUMBUS AFB   CLEAR     51  46  85 W6        29.97S
CORINTH        FAIR      54  45  71 W5        29.94S
GOLDN TRIANGLE CLEAR     54  45  71 W5        29.99S
STARKVILLE     FAIR      52  46  82 W3        30.01R
TUPELO         CLEAR     55  45  68 SW5       29.97R
$$

MSZ040-058-240800-
CENTRAL MISSISSIPPI

CITY           SKY/WX    TMP DP  RH WIND       PRES   REMARKS
JACKSON INTL   CLEAR     56  47  71 VRB3      30.04R
JACKSON HAWKNS CLEAR     55  48  77 W7        30.05R
MADISON        FAIR      52  45  76 CALM      30.04R
MERIDIAN KEY   CLEAR     50  48  93 S3        30.02S
MERIDIAN NAS   CLEAR     54  45  71 SW6       30.01S
RAYMOND        FAIR      50  48  93 CALM      30.05R
VICKSBURG VKS  SUNNY     52  50  93 CALM      30.08R
$$

MSZ059>079-240800-
SOUTH MISSISSIPPI

CITY           SKY/WX    TMP DP  RH WIND       PRES   REMARKS
HATTIESBURG    CLEAR     50  49  96 CALM      30.06S
LAUREL         FAIR      50  50 100 CALM      30.04F
MCCOMB         CLEAR     50  47  89 CALM      30.06S
NATCHEZ        CLEAR     50  48  93 CALM      30.07S FOG
PINE BELT      CLEAR     49  48  97 CALM      30.05F
$$

MSZ080>082-240800-
COASTAL MISSISSIPPI

CITY           SKY/WX    TMP DP  RH WIND       PRES   REMARKS
BILOXI         CLEAR     57  49  76 NW5       30.06R
PASCAGOULA     CLEAR     53  50  89 CALM      30.06R FOG
GULFPORT       CLEAR     55  51  86 NW3       30.06R
$$

LAZ007>009-015>016-023>026-240800-
NORTHEAST LOUISIANA

CITY           SKY/WX    TMP DP  RH WIND       PRES   REMARKS
BASTROP        FAIR      56  49  75 NW5       30.08R
TALLULAH/VBURG CLEAR     50  49  96 CALM      30.06R
VIDALIA          N/A    N/A N/A N/A MISG      30.06S
$$



USA.gov is the U.S. government's official web portal to all federal, state and local government web resources and services.